CAPE
17 5 0 1 2 2 0 1 2 4 1 1 3 16 107 152 233 323 151 17 14 6 1 1 0 0 0 0 0 0 0 1 0 0 0 0 0 0 0 0 0 0 0
8 1 1 1 4 2 2 2 0 1 1 0 0 4 18 28 162 217 6 1 0 0 0 1 1 0 0 0 0 0 0 0 0 0 0 0 0 0 0 0 0 0 0
11 3 9 8 1 4 5 3 3 4 3 2 3 1 2 11 18 27 2 0 0 1 0 1 1 0 0 0 0 0 0 0 0 0 1 2 2 1 0 0 0 0 0
15 9 2 2 3 4 3 2 0 2 2 2 2 1 0 0 0 0 0 0 1 1 1 1 1 0 0 0 0 0 0 0 0 0 0 1 1 1 0 0 0 0 0
10 2 1 0 0 0 1 1 1 3 5 1 1 1 1 0 1 1 1 1 1 0 1 0 0 1 1 0 0 0 0 0 0 0 0 0 0 0 0 0 0 0 0
4 0 0 0 0 0 0 0 2 0 3 1 1 1 1 3 6 3 0 1 1 1 1 1 1 4 5 5 3 0 0 0 0 0 0 0 0 0 0 1 2 3 4
4 2 0 0 0 0 0 1 1 1 0 1 1 1 2 5 9 7 2 0 0 0 0 0 1 0 0 0 0 0 0 0 0 0 0 0 0 0 0 0 0 0 0
2 1 0 2 1 0 0 0 0 0 0 0 1 1 2 7 9 6 1 0 0 0 0 0 0 0 0 0 0 0 0 0 0 0 0 0 0 0 0 0 0 0 0
1 0 0 0 1 0 0 0 0 0 0 0 0 0 3 4 3 0 0 0 0 0 0 0 0 0 0 0 0 0 0 0 0 0 0 0 0 0 0 0 0 1 4
0 0 0 0 0 1 0 0 0 0 0 0 0 0 1 1 1 0 0 0 0 0 0 0 0 0 0 0 0 0 0 0 0 0 0 0 2 0 0 0 0 2 1
0 0 0 0 0 0 0 0 0 0 0 0 0 0 0 0 0 1 2 0 0 0 0 0 0 0 0 0 0 0 0 0 0 0 0 0 0 0 0 2 3 9 11
0 0 0 0 0 0 0 0 0 0 1 3 1 0 0 0 0 0 0 0 0 0 0 0 3 1 2 1 1 0 0 0 0 0 0 0 0 1 2 3 0 14 17
0 0 0 0 0 1 0 0 0 0 0 0 0 0 0 0 0 0 0 0 0 0 0 2 3 1 0 0 1 0 0 0 0 0 0 1 0 0 0 1 10 21 21
0 0 0 0 1 4 5 2 1 0 0 0 0 0 0 0 0 0 0 0 0 0 0 0 0 0 0 0 0 0 0 0 0 0 0 0 2 3 3 11 16 12 18
0 0 0 0 0 3 1 0 0 0 0 0 0 0 0 0 0 0 0 0 0 0 0 0 0 0 0 0 0 0 0 0 0 0 0 0 0 1 6 15 14 15 17
0 0 0 0 0 3 0 0 0 0 0 0 0 0 0 0 0 0 0 0 0 0 0 0 0 0 0 0 0 0 0 0 1 0 1 0 1 1 2 12 3 1 2
0 0 0 0 0 1 0 0 0 0 0 0 0 0 0 0 0 0 0 0 0 0 0 0 0 0 0 0 0 0 0 0 0 2 1 0 3 0 1 1 5 8 7
0 0 0 0 0 0 0 0 0 0 0 0 0 0 0 0 0 0 0 0 0 0 0 0 0 0 0 0 0 0 1 1 2 4 0 0 1 2 2 1 4 7 12
0 0 0 0 0 0 0 0 0 0 0 0 0 1 1 0 0 0 0 0 0 0 0 0 0 0 0 0 0 1 2 2 4 2 2 5 3 3 0 0 0 5 8
0 0 0 0 0 0 0 0 0 0 0 0 0 0 4 2 0 0 0 0 1 0 0 0 0 0 0 3 4 3 3 2 5 1 0 0 0 3 0 0 3 10 10
0 0 0 0 0 0 0 0 0 0 0 0 0 0 0 0 0 0 0 0 0 0 0 0 1 1 2 4 2 2 1 1 1 0 0 0 3 6 4 2 3 5 12
0 0 0 0 0 0 0 0 0 0 0 0 0 0 0 0 0 0 0 0 0 0 0 0 1 2 4 4 2 0 1 1 1 0 1 2 2 0 1 2 5 8 8
0 0 0 0 0 0 0 0 0 0 0 0 0 0 0 0 0 0 0 0 0 0 0 0 1 0 0 0 0 0 0 1 2 2 1 1 0 0 2 3 4 3 10
0 0 0 0 0 0 0 0 0 0 0 0 0 0 0 0 0 0 0 0 0 0 0 0 0 0 0 0 0 0 0 0 1 0 0 0 1 2 1 2 1 9 19
0 0 0 0 0 0 0 0 0 0 0 0 0 0 0 0 0 0 0 0 0 0 0 0 0 0 0 0 0 0 0 0 0 0 0 0 0 1 1 0 2 8 11
0 0 0 0 0 0 0 0 0 0 0 0 0 0 0 0 0 0 0 0 0 0 0 0 0 0 0 0 0 0 0 0 0 0 0 0 0 1 0 0 0 2 5
CIN
-3 -1 -1 -1 0 0 0 0 0 0 0 0 0 -108 -50 -36 -11 0 0 -20 -26 -21 -2 0 0 0 0 0 0 0 0 -64 0 0 0 0 0 0 0 0 0 0 0
-2 0 0 0 0 0 0 0 0 -1 0 0 -1 -2 -107 -116 -20 0 -20 -2 0 0 0 0 0 0 0 0 0 0 0 0 0 0 0 0 0 0 0 0 0 0 0
-11 -18 -11 -13 0 -7 0 0 0 0 0 0 0 0 -1 -63 -22 -14 -7 0 0 0 0 0 0 0 0 0 0 0 0 0 0 0 0 0 0 0 0 0 0 0 0
-1 0 0 0 0 0 0 0 0 0 0 0 0 0 0 0 0 0 0 0 0 0 0 0 0 0 0 0 0 0 0 0 0 0 0 0 0 0 0 0 0 0 0
0 0 0 0 0 0 0 0 0 0 0 0 0 0 0 0 0 0 0 0 0 0 0 0 0 0 0 0 0 0 0 0 0 0 0 0 0 0 0 0 0 0 0
0 0 0 0 0 0 0 0 0 0 0 0 0 0 0 0 0 0 0 0 0 0 0 0 0 0 0 0 0 0 0 0 0 0 0 0 0 0 0 -1 -2 0 -1
0 0 0 0 0 0 0 0 0 0 0 0 0 0 0 0 0 0 0 0 0 0 0 0 0 -1 0 0 0 0 0 0 0 0 0 0 0 0 0 0 0 0 0
0 0 0 0 0 0 0 0 0 0 0 0 0 0 0 0 0 0 0 0 0 0 0 0 0 0 0 0 0 0 0 0 0 0 0 0 0 0 0 0 0 0 0
0 0 0 0 0 0 0 0 0 0 0 0 0 0 0 0 0 0 0 0 0 0 0 0 0 0 0 0 0 0 0 0 0 0 0 0 0 0 0 -1 -1 -1 -1
0 0 0 0 0 0 0 0 0 0 0 0 0 0 0 0 0 0 0 0 0 0 0 0 0 0 0 0 0 0 0 0 0 0 0 -4 -9 0 0 0 -1 -1 -2
0 0 0 0 0 0 0 0 0 0 0 0 0 0 0 0 0 -4 -3 0 0 0 0 0 0 0 0 0 0 0 0 0 0 0 0 0 0 -1 -2 -2 -1 -2 -4
0 0 0 0 0 0 0 0 0 0 0 0 0 0 0 0 0 0 0 0 0 0 0 0 0 0 0 0 0 0 0 0 0 0 0 -1 -1 -1 -1 -3 -1 -3 -2
0 0 0 0 0 0 0 0 0 0 0 0 0 0 0 0 0 0 0 0 0 0 0 0 0 0 0 0 0 0 0 0 0 0 0 -1 -1 0 0 -1 -3 -4 -5
0 0 0 0 0 0 0 0 0 0 0 0 0 0 0 0 0 0 0 0 0 0 0 0 0 0 0 0 0 0 0 0 0 0 0 -1 -2 -1 -3 -7 -1 -4 -2
0 0 0 0 0 0 0 0 0 0 0 0 0 0 0 0 0 0 0 0 0 0 0 0 0 0 0 0 0 0 0 0 0 -1 0 0 -1 -1 -1 -2 -4 -1 -1
0 0 0 0 0 0 0 0 0 0 0 0 0 0 0 0 0 0 0 0 0 0 0 0 0 0 0 0 0 0 0 0 0 0 -1 -1 -1 0 0 0 -3 -4 0
0 0 0 0 0 0 0 0 0 0 0 0 0 0 0 0 0 0 0 0 0 0 0 0 0 0 0 0 0 0 0 0 0 0 0 0 0 0 0 -1 0 0 0
0 0 0 0 0 0 0 0 0 0 0 0 0 0 0 0 0 0 0 0 0 0 0 0 0 0 0 0 0 0 0 0 -1 0 0 0 0 0 0 -1 0 -1 -1
0 0 0 0 0 0 0 0 0 0 0 0 0 0 0 0 0 0 0 0 0 0 0 0 0 0 0 0 0 -1 0 -2 -1 0 -1 -1 -1 -1 0 0 0 0 -1
0 0 0 0 0 0 0 0 0 0 0 0 0 0 0 0 0 0 0 0 0 0 0 0 0 0 -1 0 0 0 -1 0 -1 -1 0 0 0 -1 0 0 -1 -1 -1
0 0 0 0 0 0 0 0 0 0 0 0 0 0 0 0 0 0 0 0 0 0 0 0 -1 -1 0 0 0 0 0 -2 0 0 0 -1 0 0 0 0 -1 -2 0
0 0 0 0 0 0 0 0 0 0 0 0 0 0 0 0 0 0 0 0 0 0 0 0 -1 -1 -1 -1 -1 0 -1 0 0 0 0 -1 0 -1 -1 -2 -1 0 -1
0 0 0 0 0 0 0 0 0 0 0 0 0 0 0 0 0 0 0 0 0 0 0 -1 -2 -2 -1 -1 0 -1 -1 -1 0 0 0 0 -1 0 -1 -2 -1 -1 -1
0 0 0 0 0 0 0 0 0 0 0 0 0 0 0 0 0 0 0 0 0 0 0 0 0 0 0 0 0 0 -1 0 0 0 0 0 0 0 -1 -2 -1 -1 0
0 0 0 0 0 0 0 0 0 0 0 0 0 0 0 0 0 0 0 0 0 0 0 0 0 0 0 0 0 0 0 0 0 0 0 0 0 0 -1 0 -2 -1 -1
0 0 0 0 0 0 0 0 0 0 0 0 0 0 0 0 0 0 0 0 0 0 0 0 0 0 0 0 0 0 0 0 0 0 0 0 -1 0 0 0 -2 -2 -1
Wind_Speed
8 7 5 3 3 4 4 3 3 2 3 4 5 4 5 6 7 7 6 7 7 7 7 10 10 10 6 6 4 2 2 4 3 2 4 4 3 4 4 6 4 5 4
6 7 5 3 3 4 3 4 5 4 1 2 3 4 4 5 5 7 5 6 7 7 7 8 8 8 9 7 5 4 2 1 2 3 2 2 4 5 4 4 3 4 2
7 8 6 5 4 4 3 3 4 4 4 3 3 4 4 4 1 3 6 7 7 7 7 7 8 10 10 5 6 4 3 2 3 3 3 1 2 1 3 3 1 1 1
7 6 6 5 4 4 4 4 5 4 3 3 3 3 5 6 7 8 9 9 9 8 8 8 7 6 7 8 6 5 3 4 3 3 3 2 2 1 1 1 1 2 2
8 8 6 6 5 6 6 5 6 5 5 6 7 8 8 7 6 9 10 10 9 9 9 9 8 11 13 9 5 5 4 3 3 3 2 1 1 1 2 2 3 5 5
9 9 8 6 7 7 7 6 6 5 7 7 9 8 9 6 17 18 12 10 11 11 10 9 9 14 14 15 13 10 6 4 3 2 3 3 3 3 1 2 3 2 2
9 9 9 7 8 9 8 7 7 7 8 9 9 10 10 10 21 22 21 11 12 11 11 10 9 8 11 10 15 16 14 13 13 5 7 6 7 6 4 1 1 2 3
10 10 9 8 9 9 9 8 8 8 8 8 9 10 10 11 22 24 23 12 11 10 10 10 9 9 8 8 9 10 10 11 9 8 9 8 8 6 5 4 4 4 2
10 10 10 10 10 10 9 8 7 9 9 10 10 11 11 11 22 23 17 12 11 10 9 10 11 10 10 10 9 9 10 10 13 17 14 12 11 10 9 3 4 3 2
12 11 11 11 10 10 10 9 7 8 9 10 11 11 16 11 17 18 13 8 11 10 11 12 15 11 11 8 6 6 7 7 7 7 6 6 6 5 6 5 4 4 4
12 12 11 10 10 11 11 9 7 9 10 11 11 11 12 11 10 10 11 9 8 8 8 8 8 12 11 11 11 7 7 7 5 3 3 3 3 4 4 5 6 4 3
12 12 11 12 10 10 12 8 8 9 11 12 12 11 9 11 11 14 16 13 11 9 9 8 9 14 14 13 10 11 9 4 3 2 2 4 4 5 5 5 4 3 2
13 13 11 10 12 12 11 10 8 10 9 9 8 8 8 8 9 16 16 16 15 10 9 13 16 14 14 11 11 7 3 3 2 3 4 4 6 5 6 5 6 5 5
14 13 10 10 12 11 9 8 8 7 7 7 8 8 8 8 7 7 8 10 17 12 13 8 10 11 10 7 6 6 6 5 5 4 4 4 4 4 4 3 3 5 4
14 12 9 9 12 11 9 7 7 8 6 7 7 7 8 8 7 9 8 7 6 10 9 5 4 4 4 4 4 4 3 4 4 4 6 6 5 5 4 3 3 4 4
13 11 9 9 9 8 8 8 19 12 14 11 9 7 6 15 16 14 17 17 14 10 4 4 4 4 4 3 3 4 3 4 4 5 3 3 3 4 4 4 5 5 5
14 12 9 10 9 9 8 8 9 8 13 12 12 14 13 16 16 16 17 14 8 1 4 4 4 3 3 3 3 3 4 5 3 3 4 4 5 5 6 5 5 4 5
14 19 10 10 9 9 9 9 9 9 9 7 7 12 17 18 18 17 15 10 4 3 4 4 3 3 3 3 3 3 3 3 4 4 4 4 3 4 3 4 4 4 5
13 11 9 10 9 9 8 9 9 9 9 8 8 10 13 17 17 16 13 4 4 4 4 3 3 3 3 3 3 3 2 4 3 3 3 3 3 3 4 5 5 9 8
13 19 10 11 10 9 8 9 9 9 9 9 8 9 9 11 9 8 6 4 4 4 4 3 3 3 3 3 3 2 3 2 3 3 3 3 3 4 5 5 4 5 5
11 12 16 11 11 9 9 9 9 9 9 9 8 10 15 8 8 7 6 4 4 4 4 4 3 3 3 3 3 2 2 4 3 1 2 2 2 3 3 4 4 3 5
12 12 11 12 11 10 9 9 9 9 10 9 9 10 18 7 7 7 6 6 5 4 4 4 4 3 3 3 3 3 3 4 3 1 1 3 3 2 3 3 4 5 5
13 14 12 11 12 13 10 9 10 9 10 10 9 10 11 7 7 7 7 6 6 5 5 4 4 4 3 3 3 3 2 4 3 3 2 2 2 3 4 4 5 6 5
14 15 14 12 12 11 11 11 10 10 10 10 10 10 10 7 8 8 7 7 6 6 5 4 5 5 4 4 4 3 3 4 3 2 1 2 3 4 4 3 6 7 6
14 14 14 13 13 12 12 11 11 11 10 10 10 10 10 8 8 8 8 7 7 7 6 5 5 6 7 7 6 7 8 7 5 4 1 2 3 4 4 4 6 6 7
14 15 13 12 13 12 12 11 11 11 11 10 10 10 10 9 9 9 8 9 7 7 8 5 6 8 8 7 8 12 9 7 3 3 4 1 3 3 3 4 6 5 6
Wind_Direction
148 102 95 40 96 71 51 11 349 337 256 260 259 262 209 207 210 213 171 173 185 178 178 169 157 146 147 133 120 102 27 18 62 48 90 105 111 124 62 56 48 70 84
126 114 115 127 133 95 70 18 2 13 96 254 257 269 236 228 244 183 146 154 158 160 159 164 170 157 147 139 134 124 97 172 177 139 70 80 67 30 49 74 44 53 32
141 139 156 143 121 95 79 36 9 8 347 321 240 210 232 230 91 103 124 127 123 127 131 135 142 149 139 131 107 134 155 90 82 100 111 92 84 82 70 63 58 27 276
156 130 123 116 122 103 93 64 35 34 358 48 51 104 106 91 100 104 106 107 106 111 112 117 111 102 129 128 106 93 65 71 63 80 77 84 87 84 78 152 214 228 232
139 133 127 124 108 107 89 61 58 40 61 60 65 63 79 88 98 106 105 108 106 91 84 80 85 105 98 96 106 88 92 72 68 70 84 98 123 148 199 190 218 196 206
142 136 124 131 121 106 95 76 70 60 74 71 73 75 81 89 103 100 96 92 89 87 84 77 77 81 89 94 98 101 103 109 118 136 169 146 96 79 160 227 259 217 234
149 141 134 150 126 110 98 86 70 61 75 69 74 80 83 92 101 98 92 88 90 87 87 86 85 91 99 101 97 92 80 65 47 54 67 42 63 33 337 307 241 342 340
149 141 133 135 123 110 100 85 76 69 67 69 71 75 85 92 100 99 93 89 87 90 97 105 114 110 96 103 99 85 71 54 50 71 69 62 50 25 34 11 6 348 289
151 143 135 129 126 116 101 92 89 92 89 79 72 76 85 95 105 105 104 105 112 116 96 86 85 91 94 100 99 97 90 86 79 82 86 88 78 53 16 347 18 333 14
153 145 135 128 127 115 108 100 97 98 102 97 93 88 92 97 103 110 109 109 102 98 91 75 72 82 65 42 101 116 110 115 119 124 134 138 144 106 49 32 16 16 19
144 143 132 127 126 119 115 114 115 113 112 109 110 102 98 97 75 68 98 109 106 103 92 84 77 79 78 60 55 71 86 96 92 100 95 55 45 47 58 50 31 12 355
141 142 134 134 138 130 123 129 130 124 116 113 110 105 98 94 85 74 76 86 97 97 95 95 95 89 83 87 87 86 75 63 38 53 42 41 22 22 30 40 358 336 322
142 140 138 145 148 140 137 139 134 129 125 123 119 115 109 104 96 98 95 93 93 89 86 100 103 100 95 81 83 84 70 54 48 47 40 46 35 19 357 353 1 357 334
143 143 149 149 143 147 145 143 143 140 135 131 129 127 126 124 124 120 103 96 96 99 109 101 92 87 93 110 93 60 49 38 30 35 35 46 39 5 7 6 350 355 326
144 144 156 138 148 149 143 138 144 135 138 139 136 136 138 137 135 130 131 126 118 113 124 134 119 106 98 89 77 75 61 51 49 37 37 32 12 351 349 15 344 335 343
146 150 156 151 147 151 131 94 59 74 79 88 115 132 122 111 116 104 98 102 119 140 122 111 105 98 93 93 98 95 80 62 43 50 46 22 346 357 358 359 12 351 332
152 154 164 146 153 148 150 141 124 77 74 80 83 97 117 125 122 119 123 126 119 194 99 88 92 99 102 98 74 71 75 64 41 47 39 22 16 9 359 352 355 339 326
158 156 168 148 149 156 158 144 138 138 135 127 118 121 127 131 134 134 137 127 123 111 100 93 100 107 103 92 84 85 93 113 71 45 34 28 21 1 352 345 348 337 333
157 159 168 145 146 158 153 145 145 143 138 135 133 128 136 137 138 146 170 137 127 126 113 104 109 107 99 91 78 64 68 67 61 58 33 24 9 351 351 347 343 345 345
163 161 167 146 145 158 154 153 151 149 147 149 154 149 147 145 154 166 190 152 137 139 130 131 123 126 104 103 110 113 129 156 83 55 25 8 2 348 350 345 344 334 329
158 164 161 149 150 159 162 161 157 155 153 156 158 158 158 163 165 168 180 167 147 149 139 143 131 119 119 123 129 143 117 75 66 56 28 352 326 340 6 331 303 287 314
160 163 166 155 150 158 168 163 160 160 155 157 155 150 160 185 167 168 172 162 150 148 143 141 139 130 134 151 154 138 113 125 116 93 59 283 348 350 302 319 344 358 349
161 163 165 158 151 159 166 167 164 164 159 158 153 154 172 191 164 168 162 157 147 148 143 142 133 130 133 130 117 108 124 113 139 154 246 348 335 357 335 350 3 347 331
164 165 163 159 155 164 170 168 166 165 162 158 156 162 175 184 165 163 160 153 150 148 137 132 137 143 141 131 127 124 103 113 125 123 27 353 355 356 344 359 351 342 337
167 169 164 163 162 166 169 169 167 168 167 161 161 165 173 173 165 159 162 152 152 144 141 140 139 147 149 146 143 128 103 62 76 16 25 2 349 343 353 16 340 345 341
170 170 164 165 164 167 171 170 168 169 170 164 165 167 170 169 165 162 160 154 152 143 141 143 152 145 151 151 142 125 128 127 115 44 335 356 353 359 1 316 315 336 331